Starlink 33990

operational
NORAD ID: 63840 Int'l Des: 2025-093 Owner: SPXS Country: US Constellation: starlink
LEOCIRCULAR

Über Starlink 33990

Beschreibung wird geladen...

Live-Position

3D-Globus wird geladen...

Nächste Überflüge

Höhenverlauf

Altitude vs Time

uPlot chart will show altitude changes over time

Zweizeiliger Elementsatz

1 63840U 25093E 25340.78187696 .00042148 00000-0 15306-2 0 9992
2 63840 42.9954 242.5471 0000900 292.3297 67.7459 15.27618833 33541
Epoch: 6. Dez. 2025 • Age: 23 hours

Aktueller Status

Höhe 492.4 km
Geschwindigkeit 7.62 km/s
Subsatellitenpunkt -35.79°S, 160.67°W
Startdatum 7. Mai 2025
Alter 0.5 years
Typ internet

Technische Details

Klassifizierung Payload
Masse 575.00 kg
Trockenmasse 530.00 kg
Gesamtmasse 575.00 kg
Länge 0.30 m
Durchmesser 4.10 m
Spannweite 29.00 m
Form Box + pan
Hersteller SPXS
Bus-Typ Starlink V2MO
Phasenstatus In Orbit
Besitzer/Staat SPXS/US

Große Konstellationen

Loading constellations...